Theta_e
309 308 307 306 307 309 310 310 312 313 315 316 317 317 318 318 317 317 316 315 314 312 310 308 307 307 306 306 305 305 304 303 302 302 302 303 303 303 304 304 307 309 312 318 322 323 324 324 324 324 324 324 323 323 323 325 327 327 335 339 337 341 341 340 338 331 329 331 329 326 326 327 327 326 325 327 326 326 327 327 329 328 327 329 330 326 322 323
308 309 309 307 307 308 308 309 310 311 313 315 316 317 317 318 318 317 317 316 315 314 312 310 309 308 308 307 307 306 305 305 304 303 303 303 303 303 303 303 306 309 312 315 318 320 321 322 324 324 325 325 324 323 324 326 326 329 336 336 336 342 338 332 332 327 327 329 327 326 326 326 327 326 326 328 327 326 327 327 329 330 329 329 329 327 325 324
307 308 309 309 308 307 307 307 308 310 312 314 315 316 316 317 318 317 317 317 316 316 315 313 310 309 309 308 307 306 306 306 305 304 304 304 303 303 304 303 304 306 311 317 319 320 321 322 324 326 326 326 324 324 324 326 327 328 332 336 338 336 331 327 327 326 327 328 327 327 327 327 328 326 327 328 326 327 327 327 328 330 329 329 330 329 327 325
306 307 308 308 308 308 307 307 307 308 310 313 314 314 315 316 317 318 317 317 317 316 316 315 313 311 309 309 307 307 308 308 307 307 305 305 305 304 304 304 303 303 308 315 322 323 324 325 326 327 326 326 325 324 324 325 327 327 330 337 337 328 328 330 326 326 327 328 328 328 328 328 328 327 328 327 328 329 327 326 328 328 328 329 330 330 328 327
306 306 307 307 308 308 308 307 307 307 309 312 313 313 314 315 316 317 317 317 317 317 317 316 315 313 311 310 308 308 309 309 313 315 313 312 311 311 309 307 305 303 305 311 322 326 325 327 327 327 327 326 325 325 325 324 325 326 328 330 330 326 328 329 326 327 326 326 327 326 328 329 328 328 327 327 332 333 327 327 328 327 328 328 329 330 329 327
305 306 306 306 307 307 307 307 307 307 308 309 311 312 313 314 314 316 317 317 317 317 317 317 317 315 313 311 309 308 308 310 317 319 317 318 317 317 316 314 310 306 303 307 317 325 325 326 327 327 326 326 326 327 326 324 324 327 327 325 325 326 327 327 326 326 325 325 325 325 327 328 327 329 328 326 330 331 327 327 327 327 328 327 328 329 329 328
304 305 305 306 306 307 307 307 307 307 307 308 309 310 312 313 313 314 316 317 318 317 317 317 317 317 315 313 309 308 307 308 316 319 319 319 317 316 316 318 317 311 305 304 310 318 322 324 326 327 326 326 326 326 325 324 323 326 328 324 324 325 324 325 325 325 324 324 324 325 325 326 327 329 329 327 328 328 328 328 327 327 328 327 328 328 328 328
304 304 305 305 305 306 306 306 307 307 307 307 308 309 311 313 313 313 314 316 318 318 317 317 317 317 316 313 309 308 308 307 314 319 319 319 317 315 314 316 317 313 308 305 305 309 314 320 325 326 325 327 326 325 325 325 325 325 327 325 322 324 324 324 324 324 324 323 324 324 324 325 327 328 327 327 328 328 328 328 327 328 327 328 328 328 328 328
304 304 304 305 305 306 306 306 306 307 307 307 307 308 310 312 313 313 313 314 317 318 317 317 317 318 317 313 309 309 310 308 313 319 320 319 317 314 315 315 315 314 310 308 305 306 312 318 324 326 324 325 324 324 324 326 328 325 325 324 322 323 323 324 323 323 324 323 323 323 324 324 324 326 327 327 327 328 328 327 327 327 327 327 328 328 328 328
304 304 304 305 304 305 306 306 306 306 306 307 307 307 308 310 311 312 312 313 315 317 317 318 318 317 317 314 310 310 312 308 311 316 319 319 317 314 314 316 317 315 311 310 306 308 315 318 322 324 323 323 322 323 322 325 327 324 322 322 321 322 322 323 322 322 323 323 324 324 325 323 323 325 327 327 327 328 327 327 327 327 327 327 327 327 328 328
304 304 305 305 304 305 305 306 305 306 306 306 306 306 307 308 310 311 312 313 313 315 317 318 318 317 318 315 311 311 312 310 311 312 313 314 314 313 314 315 318 315 311 311 307 309 318 319 321 323 322 322 321 322 321 322 323 322 321 322 321 320 321 321 321 322 322 323 324 323 324 323 323 326 326 325 326 327 327 327 327 326 326 326 326 327 327 328
304 304 305 305 304 305 305 305 305 306 306 306 306 306 307 307 308 309 310 312 312 314 315 317 318 318 318 316 314 314 313 311 312 311 311 311 310 311 312 314 317 316 311 308 306 312 320 320 321 322 321 321 321 320 321 321 321 321 321 323 324 322 322 322 320 321 321 323 323 322 325 325 324 325 325 324 325 327 327 327 326 326 325 326 327 327 327 328
303 304 304 304 305 305 305 305 305 306 306 306 306 306 306 306 307 308 309 311 311 312 314 315 316 317 318 317 316 316 315 313 311 311 312 312 310 310 310 313 318 318 310 306 308 315 321 321 321 322 322 321 322 320 321 321 320 322 321 322 325 324 325 323 320 322 321 322 322 323 327 327 326 324 323 324 325 326 327 327 326 326 326 325 327 327 327 328
303 304 304 304 305 305 305 305 305 305 306 306 306 306 306 306 306 307 308 310 310 311 313 313 314 315 317 317 317 317 316 315 312 312 312 312 312 312 310 313 318 318 311 309 314 318 320 321 321 323 323 323 323 322 324 323 322 323 321 322 324 326 330 326 319 322 322 322 322 323 326 326 325 323 323 324 324 325 326 326 326 326 326 326 326 327 326 326
302 303 304 304 304 304 304 305 305 305 305 306 307 306 307 307 306 307 308 309 309 310 312 313 313 314 316 316 316 317 317 316 314 312 313 313 314 314 313 312 315 318 317 315 318 321 321 322 322 323 323 323 323 324 328 328 326 326 323 325 326 325 328 326 319 320 322 322 321 323 327 327 325 322 321 323 322 324 325 326 327 326 327 326 326 326 325 324
301 302 303 303 304 304 304 305 305 305 305 306 306 307 307 307 307 307 307 308 309 310 312 313 313 313 315 316 316 317 317 317 316 313 314 314 314 316 316 313 314 320 321 318 319 322 322 322 323 323 323 323 324 326 328 326 327 327 324 327 328 325 325 324 321 319 319 322 320 321 325 327 326 322 321 322 321 322 323 324 325 325 326 325 324 324 324 324
301 302 302 303 303 304 304 304 305 305 305 305 306 307 306 307 307 307 307 307 308 310 311 313 314 313 314 315 315 315 316 317 316 314 315 314 315 318 318 315 317 322 323 321 321 322 322 323 323 324 323 323 323 326 327 324 326 327 324 325 329 327 325 325 325 320 317 321 321 321 321 322 323 321 320 321 321 321 320 322 323 323 324 323 323 323 322 323
301 302 302 302 303 304 304 304 304 305 305 305 306 306 306 307 307 308 308 308 309 310 311 313 313 314 315 315 314 315 316 316 316 315 315 315 315 319 319 316 318 321 322 322 322 322 323 323 323 324 324 323 322 324 325 322 323 325 324 324 325 325 325 324 325 321 318 320 321 321 321 320 320 319 318 319 321 321 320 321 322 322 323 323 322 322 323 322
301 301 302 302 302 303 303 304 304 305 305 305 306 306 306 307 307 308 308 308 309 310 312 313 313 314 314 314 314 315 315 316 315 315 315 315 315 318 319 318 319 320 322 322 322 322 323 323 323 323 323 323 322 322 322 321 321 322 322 322 322 323 323 322 322 320 319 320 321 320 320 319 319 319 318 319 320 320 321 321 322 322 322 322 322 322 323 323
301 301 301 301 302 303 303 303 304 304 305 305 306 306 307 307 307 307 308 309 309 310 311 314 313 312 312 313 314 315 315 315 314 314 315 315 315 316 319 320 320 321 321 321 322 323 323 323 323 321 320 320 320 321 320 320 320 319 320 321 322 323 322 320 320 320 318 320 321 319 318 318 317 318 317 317 319 319 319 320 320 322 322 321 322 323 323 323
300 301 301 301 301 302 303 303 303 304 304 305 306 306 306 307 307 307 308 308 309 309 310 313 313 312 312 313 314 314 314 314 314 314 314 314 314 315 317 320 321 321 320 319 321 322 322 323 323 320 319 319 320 320 320 319 318 319 320 320 320 321 321 320 321 320 317 318 320 320 320 318 317 318 316 315 318 319 318 319 320 321 322 323 323 324 323 323
300 300 301 301 301 301 302 302 303 303 304 305 305 306 306 306 307 307 308 308 308 308 309 311 312 312 312 313 314 314 314 313 313 314 313 313 314 315 317 319 321 320 318 319 321 322 324 324 322 320 320 321 321 320 320 320 318 319 320 320 320 320 319 320 321 320 317 318 322 322 320 318 318 319 317 316 317 318 319 320 321 321 322 323 323 323 323 322
299 300 301 301 301 301 301 302 302 303 304 304 305 306 306 306 306 307 307 307 308 307 308 309 311 312 313 313 313 314 313 313 313 313 313 313 314 314 317 318 319 319 318 319 320 321 323 322 321 320 320 322 323 321 320 320 319 318 318 319 321 321 320 322 323 321 319 319 321 322 320 318 318 319 318 316 316 318 320 321 321 322 322 322 323 323 323 322
299 299 300 300 301 301 301 302 302 303 304 304 305 305 305 306 306 307 307 306 308 308 308 308 309 311 312 313 313 313 314 313 313 314 313 313 314 314 316 317 317 317 317 318 318 319 320 319 319 320 320 322 322 322 321 321 320 319 318 318 319 321 321 322 323 322 322 320 319 320 321 319 318 320 319 317 317 316 317 319 319 320 321 321 322 322 322 322
299 299 300 300 300 301 301 302 302 302 303 304 304 304 305 305 306 307 306 306 307 307 308 308 308 309 310 312 313 313 313 313 314 314 313 313 314 315 316 316 316 316 316 317 317 318 317 317 319 320 320 321 321 322 321 321 321 321 320 319 319 321 321 321 322 322 324 325 323 322 322 321 320 321 320 317 318 317 316 316 317 319 320 320 320 321 321 321
299 299 300 300 300 300 301 302 302 302 303 303 303 304 305 305 306 306 306 307 307 307 308 309 308 309 309 311 313 313 313 313 313 314 314 313 314 314 315 315 314 315 315 315 316 317 316 316 318 320 320 320 321 321 321 321 322 322 322 321 320 321 322 322 322 323 325 325 325 322 320 320 319 322 324 320 319 320 318 317 316 317 319 319 319 320 320 320
299 299 299 299 300 300 301 302 301 302 303 303 303 304 304 305 305 305 306 307 307 308 309 308 308 309 309 310 312 312 313 314 314 314 314 314 314 314 315 314 313 313 313 314 316 316 316 317 319 319 319 320 320 320 320 321 322 322 324 323 321 321 322 323 323 324 325 324 324 322 320 321 320 322 327 325 323 323 323 321 318 316 318 319 319 320 320 320
299 299 299 299 299 300 301 301 301 302 302 302 303 303 304 305 304 305 306 307 308 308 308 308 308 308 309 309 311 312 313 314 314 314 314 314 314 313 313 314 313 312 312 314 315 314 315 317 318 318 319 319 319 319 319 320 321 323 325 324 322 321 321 323 324 324 323 323 324 322 321 324 322 321 323 323 323 324 324 325 321 316 318 319 320 320 320 319
299 299 299 299 299 300 300 301 301 302 301 301 303 303 304 304 304 306 306 307 310 309 307 309 309 308 309 310 311 311 311 313 314 314 314 313 314 313 313 313 313 312 311 313 314 313 313 315 316 317 318 318 318 318 319 320 320 321 323 323 322 321 321 322 324 324 323 323 324 322 322 323 322 321 321 320 321 322 322 323 321 317 318 320 319 319 318 318
299 299 299 299 300 300 300 301 301 301 301 302 302 303 304 304 305 307 307 307 310 310 307 308 308 308 310 311 311 311 311 312 313 313 313 313 313 312 312 312 311 311 311 312 313 312 311 312 313 315 316 316 317 316 316 319 318 318 320 322 322 322 322 323 323 323 324 325 324 322 322 322 322 322 321 321 322 322 320 320 319 316 317 319 318 318 318 318
298 299 300 300 300 300 300 301 300 301 302 302 302 303 304 305 305 307 307 307 309 310 307 307 308 310 311 311 312 311 310 311 312 312 312 312 311 311 312 312 311 311 311 311 312 311 310 311 313 314 313 313 315 314 313 316 317 318 322 323 322 322 321 322 322 323 324 325 323 322 322 322 322 322 319 320 323 321 319 319 320 317 316 317 318 318 318 319
298 299 299 300 300 300 300 300 299 300 301 302 302 303 304 305 306 306 307 307 307 308 307 307 309 310 310 311 312 311 310 311 312 312 312 312 311 312 312 313 312 311 312 311 312 311 310 312 314 314 312 312 314 315 314 316 318 319 322 322 322 322 322 322 323 323 323 322 320 322 323 322 322 320 318 319 321 319 316 316 318 317 316 317 318 319 319 319
298 298 299 299 299 300 300 300 300 300 301 302 302 304 304 305 305 305 306 306 305 305 307 308 309 310 310 310 311 311 310 311 312 312 312 312 312 312 313 312 311 312 313 312 312 312 311 311 312 313 314 312 312 314 315 316 317 317 319 320 320 321 322 322 322 321 321 319 319 320 322 322 321 319 318 319 319 318 315 315 316 316 316 318 318 318 318 318
298 298 299 299 299 300 300 300 300 301 301 302 302 304 304 304 305 306 306 305 305 306 307 309 310 310 310 310 310 311 311 312 312 312 312 312 311 312 313 313 312 312 312 312 312 312 312 313 311 311 314 314 312 312 314 316 317 316 317 318 318 319 320 320 319 318 318 317 317 318 319 322 321 318 318 317 315 316 316 316 316 316 316 317 316 316 317 317
298 298 299 299 299 299 300 300 300 301 301 302 302 303 304 304 304 305 305 305 306 307 308 309 310 310 310 310 310 311 311 311 312 312 312 312 312 312 312 313 313 312 312 312 312 312 312 314 313 311 312 314 312 311 312 316 317 316 316 317 318 318 319 321 320 317 316 316 316 317 320 321 319 316 316 315 315 315 314 315 316 316 316 315 316 316 317 317
299 299 299 300 299 299 300 300 300 300 301 302 303 303 304 304 304 305 305 305 307 308 309 310 310 310 310 310 310 310 311 311 312 312 313 312 311 312 312 312 312 312 312 312 313 312 312 314 313 310 311 314 313 311 312 314 316 317 317 317 318 318 318 320 318 315 316 317 316 317 319 319 317 316 317 317 318 317 315 315 314 314 316 316 316 317 317 317
300 300 299 300 299 298 299 300 300 300 301 302 302 303 304 304 304 306 306 305 307 309 309 308 309 309 310 310 310 310 311 311 311 312 313 312 311 312 312 312 312 311 312 312 313 313 312 313 312 310 311 312 311 312 313 312 315 319 317 316 317 318 319 319 317 315 317 317 317 317 317 316 317 318 318 318 318 318 318 317 314 313 316 316 316 315 315 315
300 301 300 299 299 299 299 300 300 300 301 302 302 303 304 303 303 304 305 305 307 308 308 307 308 309 310 310 310 310 310 311 311 312 312 312 312 312 311 312 312 311 311 310 313 315 313 312 312 311 311 312 312 314 315 313 314 316 316 316 317 317 319 319 318 317 317 316 316 317 316 315 317 318 318 319 319 318 319 318 317 316 314 314 314 312 311 312
301 301 300 299 298 299 299 300 300 300 301 302 302 302 303 303 302 302 303 304 306 307 307 306 307 309 310 310 310 310 310 311 311 312 312 312 312 311 311 312 312 311 311 309 312 316 313 312 314 311 309 312 314 315 316 315 313 314 317 317 317 317 318 319 318 316 316 316 315 316 316 316 317 317 316 318 320 321 321 320 320 317 313 311 311 311 310 311
301 301 301 299 298 299 299 300 300 301 301 301 301 302 302 302 302 302 303 303 304 305 306 306 307 308 308 309 309 310 310 310 311 312 312 312 312 312 311 311 312 311 311 310 311 313 312 311 313 312 310 312 315 315 315 315 314 315 318 317 315 317 318 318 318 317 316 316 315 315 315 316 318 319 317 316 318 321 323 322 320 316 312 311 310 310 310 310
301 301 301 300 299 299 300 300 300 301 301 301 301 302 301 302 302 303 303 303 303 304 305 306 307 307 308 308 308 309 310 310 310 311 311 312 312 312 311 311 311 311 311 311 311 311 312 311 312 313 311 310 312 313 313 314 314 315 316 316 315 316 318 317 317 317 317 316 315 315 314 317 322 320 315 315 318 319 319 317 316 313 310 310 309 309 310 310
300 301 301 301 300 300 300 301 301 300 301 301 301 301 301 302 302 302 303 302 302 303 303 305 307 306 307 308 308 308 309 310 310 310 311 311 311 312 311 310 310 311 311 312 310 309 312 313 312 312 312 311 311 313 313 313 314 314 315 315 315 315 317 317 316 316 318 317 316 317 316 319 325 325 320 318 317 316 314 312 312 311 310 309 309 309 310 312
300 301 302 301 301 300 300 301 301 300 300 301 301 301 301 302 302 302 303 303 302 302 302 304 306 306 306 307 307 307 308 309 310 310 310 311 311 311 311 310 310 311 311 311 311 309 310 312 311 312 313 312 312 314 314 312 312 313 314 314 314 314 315 317 316 316 318 317 317 318 316 317 321 325 321 315 312 312 311 311 311 310 309 309 309 310 312 312
301 301 301 302 301 300 300 301 301 301 300 300 301 301 301 301 302 302 303 303 303 303 303 303 305 307 306 306 307 307 308 309 310 309 310 311 310 310 310 310 310 311 311 311 311 310 310 311 311 312 312 312 313 314 314 312 311 312 313 313 314 314 314 315 316 315 315 317 317 317 316 316 320 323 317 312 312 312 310 309 310 309 308 308 309 311 312 312
301 300 301 301 301 300 300 301 301 301 300 300 301 301 301 301 301 302 303 303 303 303 303 303 304 306 307 307 307 306 306 307 309 309 309 310 310 309 309 310 310 310 310 310 310 310 311 311 311 311 311 312 313 314 313 312 311 312 313 313 312 313 313 314 315 313 313 316 316 316 315 315 317 317 315 313 314 314 310 308 308 308 308 308 309 310 310 310
300 301 301 301 301 300 300 300 300 301 301 300 300 301 301 301 301 302 302 303 303 303 303 303 304 305 306 307 307 305 304 305 307 308 307 308 310 309 309 310 310 310 310 310 310 310 312 312 311 311 311 312 313 314 313 313 312 312 313 312 312 313 312 313 314 314 314 315 315 314 314 314 313 312 312 313 313 314 312 307 306 307 307 308 308 309 309 309
301 302 302 302 301 300 300 300 300 300 300 300 300 300 301 301 301 302 302 302 303 303 303 303 304 304 305 305 306 306 306 306 306 306 306 307 309 309 308 308 310 310 310 310 309 310 312 311 311 311 311 311 312 313 314 313 312 312 312 311 311 312 312 312 313 313 313 313 313 312 312 312 311 309 310 311 312 313 311 307 306 308 307 307 308 309 309 309
301 302 302 302 302 301 301 300 300 300 300 300 300 301 301 301 301 301 302 302 302 303 303 304 304 304 305 305 305 306 307 307 307 306 307 307 309 309 308 308 309 309 310 310 309 310 310 310 310 311 311 311 311 313 315 314 312 312 312 311 311 311 311 312 312 312 312 312 312 311 311 310 310 309 309 309 309 309 309 308 308 309 308 308 308 308 308 308
300 301 301 301 302 301 301 301 300 300 300 300 300 300 300 301 300 301 302 302 302 303 303 303 304 304 304 304 305 305 306 307 307 307 307 308 308 309 309 309 309 309 309 309 308 308 310 310 310 310 311 311 310 312 313 313 312 312 312 312 311 311 311 311 311 311 311 311 311 310 310 310 309 309 309 308 307 307 308 308 309 310 309 309 308 308 308 308
300 301 301 301 301 301 301 301 301 300 300 300 301 301 300 301 300 301 302 302 302 303 303 303 303 304 304 304 304 305 305 306 307 307 308 308 308 308 308 310 310 309 308 308 308 308 309 310 311 310 310 310 310 310 310 311 312 312 312 312 311 311 311 310 310 311 311 311 311 310 311 310 309 308 308 308 307 308 309 309 309 310 310 309 308 308 308 308
301 301 301 301 302 302 301 302 301 300 300 300 301 301 301 301 301 300 301 302 302 303 303 303 303 303 304 304 304 304 304 305 306 306 306 308 308 308 308 309 310 309 308 308 309 308 308 310 311 310 310 310 310 310 309 308 309 311 311 312 312 312 311 311 310 311 311 311 311 311 311 310 310 310 309 308 308 308 308 307 308 309 309 309 308 308 307 307
301 302 301 301 302 303 302 302 301 300 300 300 300 301 301 301 301 301 301 301 302 302 302 302 303 303 303 303 304 304 304 304 304 304 305 307 307 307 307 308 308 308 308 308 308 308 308 309 310 310 310 310 310 310 309 308 308 309 310 310 311 311 311 310 310 311 311 311 311 311 311 310 311 312 312 311 311 310 308 306 307 308 309 309 309 308 308 307
Wind_Speed
23 23 25 27 29 29 29 28 27 25 23 21 21 21 20 19 17 15 14 13 12 11 9 9 9 9 10 9 10 12 13 13 13 16 17 11 8 11 11 10 14 18 20 20 19 19 17 15 12 9 8 6 5 5 4 5 6 3 2 3 2 4 4 4 5 2 1 2 5 4 2 3 2 1 4 4 3 4 5 4 3 4 4 5 4 7 9 10
24 23 23 25 27 28 29 29 29 28 26 23 22 21 20 19 19 18 16 14 13 11 10 10 9 9 9 8 10 11 12 12 15 19 17 12 12 12 10 11 12 14 15 14 16 18 17 15 12 11 9 7 6 6 5 6 8 6 3 3 4 5 5 5 4 1 2 2 7 5 1 1 3 1 1 2 1 4 4 2 4 4 4 5 6 9 9 9
26 25 24 24 25 26 28 29 29 29 28 25 24 22 21 20 20 20 19 16 14 13 11 11 10 10 9 8 9 10 10 12 16 19 15 13 14 12 12 12 12 13 13 11 12 14 15 14 13 13 9 7 8 8 6 6 8 7 4 2 6 6 5 9 4 2 4 5 5 5 2 3 3 1 1 1 2 3 2 2 4 5 4 5 7 10 10 9
27 26 26 25 25 26 26 28 29 30 29 27 26 25 23 21 21 21 20 18 16 15 13 11 10 10 9 8 8 8 9 11 13 14 11 10 12 12 14 13 13 14 15 14 13 14 15 15 13 12 9 7 9 8 7 8 7 5 6 5 6 5 4 12 9 0 3 3 3 4 4 3 3 1 1 4 2 1 2 4 1 3 5 8 9 11 11 10
28 27 27 27 26 26 26 27 27 29 30 29 27 27 26 22 22 22 21 20 19 17 14 12 11 11 10 8 7 6 5 6 5 6 5 7 7 9 11 13 14 14 16 17 17 16 15 14 10 10 8 5 7 6 6 11 9 2 5 7 7 5 3 12 13 4 1 2 5 6 5 3 3 3 2 4 4 3 4 3 1 2 3 5 7 10 12 12
28 28 27 28 27 27 26 26 27 27 28 30 30 29 27 24 23 22 22 22 21 20 17 14 12 11 10 9 7 6 5 2 1 4 6 6 3 2 5 11 14 14 17 19 20 18 15 12 9 9 7 5 6 5 6 12 10 3 5 7 9 9 6 11 15 11 8 7 8 5 6 7 5 6 7 6 6 6 4 1 1 1 3 3 5 9 11 12
28 28 27 28 28 27 27 27 27 27 27 28 30 31 29 25 24 23 22 21 23 22 19 17 14 12 10 10 9 8 11 11 5 4 6 5 4 1 1 6 11 14 17 20 23 22 18 14 11 9 6 3 5 6 7 9 6 3 3 5 8 12 12 14 16 16 15 10 8 6 7 10 9 7 7 10 11 8 6 5 4 4 5 5 8 9 11 12
28 28 28 28 28 27 27 27 27 27 27 27 29 30 30 27 24 24 23 21 22 23 21 19 16 13 11 11 11 10 16 15 8 8 6 6 3 1 4 3 6 12 16 19 22 22 21 18 15 10 5 3 4 4 6 5 4 4 5 7 7 9 12 15 17 19 20 15 11 8 7 10 12 10 9 13 16 13 11 9 10 9 7 8 11 12 13 14
28 29 28 28 28 28 27 27 27 27 27 27 27 29 30 29 26 24 25 23 21 22 23 21 19 16 12 13 11 10 17 13 10 11 7 5 4 2 2 3 3 9 13 17 18 20 20 20 19 12 4 5 4 2 3 3 3 4 6 9 8 10 13 15 16 18 21 20 13 7 6 11 13 10 9 16 19 17 17 16 16 15 12 12 14 16 17 17
28 28 28 28 29 28 28 27 28 27 26 27 26 27 28 29 28 26 26 24 21 21 22 22 21 18 15 16 12 8 15 11 11 14 11 10 7 4 2 1 3 7 11 15 17 20 19 17 18 13 4 4 5 5 4 4 5 5 6 9 9 12 15 16 16 16 17 17 14 7 7 14 15 8 8 13 14 14 17 19 19 18 17 18 19 21 21 22
28 28 28 28 29 29 28 27 28 27 27 27 27 27 28 29 28 27 27 26 23 21 20 22 22 21 19 19 17 13 11 7 10 17 16 16 14 10 6 2 3 6 10 13 17 22 18 13 15 11 5 5 5 6 7 5 6 9 9 9 9 9 11 13 12 14 12 10 13 9 7 14 11 6 11 15 15 15 17 18 19 19 19 20 22 24 25 26
27 28 27 27 28 28 28 27 28 27 27 26 27 27 27 28 28 29 30 28 25 22 20 20 23 24 22 24 30 27 16 7 8 15 17 16 16 14 10 5 4 6 10 13 17 21 17 13 14 10 5 6 5 2 5 7 5 7 7 5 7 7 6 9 8 10 9 5 8 6 7 11 7 10 18 20 18 19 19 22 24 24 25 23 23 25 26 28
27 27 27 27 28 27 27 28 27 27 27 26 26 26 26 27 27 28 30 29 26 24 20 19 22 24 22 24 31 31 21 16 13 13 15 15 13 13 12 9 5 6 9 12 16 20 17 13 13 10 7 5 3 2 2 3 3 4 3 2 4 6 6 7 6 7 7 5 6 2 3 8 7 15 24 21 20 21 21 25 28 28 29 28 27 27 26 26
28 27 26 26 27 26 26 27 28 27 26 26 25 26 26 26 26 27 27 27 26 24 21 20 20 21 24 24 27 30 26 22 20 17 16 15 11 10 12 11 7 5 8 12 15 17 16 13 11 10 8 6 3 1 1 2 0 2 3 2 2 2 5 5 6 7 6 6 9 6 5 8 7 13 21 21 20 20 23 27 29 30 30 30 31 30 30 30
28 28 26 25 26 26 26 26 27 27 27 26 25 25 25 25 26 26 26 26 25 24 22 20 19 18 20 21 21 27 29 26 25 22 19 16 11 9 12 14 11 6 7 12 15 15 15 13 10 7 6 7 4 1 2 3 3 1 3 2 2 4 5 6 5 8 8 7 10 8 5 8 8 13 22 25 24 22 24 28 29 29 29 31 33 32 33 33
27 28 28 26 25 25 25 26 26 26 27 27 25 24 25 24 25 26 26 25 25 25 22 19 22 20 14 14 14 19 28 33 30 24 22 18 13 10 10 14 14 9 9 12 14 14 14 11 8 6 4 4 4 3 3 1 3 3 2 3 2 4 4 5 7 9 12 7 8 10 6 6 7 12 18 21 26 26 23 26 28 28 29 30 31 30 30 31
26 27 28 28 26 25 25 26 25 25 26 27 26 24 24 24 24 25 25 26 25 25 24 21 21 21 16 13 12 18 27 32 30 26 24 20 15 12 10 14 16 14 12 14 15 13 12 11 6 4 4 2 3 4 3 3 3 3 1 3 3 4 4 3 5 6 9 7 7 9 7 9 11 15 18 17 21 23 20 23 27 28 28 28 27 26 26 29
25 26 28 28 26 25 25 26 25 24 25 26 26 23 23 25 24 25 25 26 26 22 23 23 17 12 16 19 16 17 23 27 29 30 26 20 16 14 13 14 17 17 13 12 14 13 10 9 5 1 2 3 3 5 6 7 7 7 7 5 4 4 5 5 4 3 2 4 7 8 7 11 13 17 24 24 21 18 19 24 26 27 28 26 23 22 23 25
25 26 27 28 27 26 25 26 26 25 24 25 26 23 23 25 24 25 27 26 25 19 12 19 25 10 2 14 25 23 19 20 28 31 27 23 19 16 15 16 18 19 14 8 9 13 11 6 5 4 5 8 8 10 10 7 10 12 8 6 5 5 6 5 5 5 3 3 7 9 9 11 13 14 20 27 26 21 19 21 22 24 25 23 20 21 24 25
25 26 26 26 27 26 25 26 26 25 25 24 26 23 19 21 16 16 26 29 31 30 15 14 32 26 2 4 22 31 23 18 26 32 31 25 23 20 18 18 18 16 11 6 6 12 13 7 7 10 11 13 12 12 9 3 7 8 4 4 6 5 6 5 5 7 7 5 7 9 10 11 13 12 17 25 25 20 20 19 21 24 24 25 23 23 26 27
26 25 25 26 26 26 25 25 26 25 25 26 28 23 19 21 13 8 20 27 31 39 30 17 23 32 22 5 9 23 26 21 25 32 32 30 27 20 18 18 13 10 8 7 6 8 10 9 12 14 11 9 9 8 7 5 4 5 5 6 6 6 6 5 5 7 5 4 5 8 10 11 11 10 15 21 15 15 22 23 25 28 28 29 27 24 26 27
26 25 25 25 26 26 25 25 26 27 26 26 28 26 24 26 21 12 12 15 25 37 39 31 23 24 28 19 9 15 19 17 22 30 32 32 28 18 16 15 8 6 7 7 6 6 9 11 13 13 8 5 6 7 8 8 7 4 5 4 4 5 2 5 6 6 3 3 4 6 8 10 10 9 12 16 12 15 26 28 28 30 28 29 28 26 27 28
26 26 25 25 25 26 25 25 26 27 27 25 27 29 29 28 25 17 10 5 14 29 38 40 33 25 25 24 19 20 18 14 19 29 33 33 29 23 17 12 8 7 8 8 9 9 9 10 10 11 8 8 7 9 9 7 7 6 5 4 4 4 3 3 5 5 4 5 4 5 8 8 8 8 9 16 20 19 24 27 27 26 25 26 27 27 28 30
25 26 26 25 25 25 25 25 25 27 28 27 29 31 31 28 25 22 15 4 6 15 31 41 40 33 27 22 22 26 23 20 22 28 35 35 30 25 18 14 12 8 9 14 14 12 9 5 11 13 9 10 9 9 10 7 6 7 7 7 4 4 6 4 3 4 4 4 2 3 8 9 7 9 8 12 19 18 18 21 20 21 22 23 24 27 29 31
24 25 26 26 26 25 24 25 26 28 29 30 33 32 31 28 26 24 14 4 5 6 15 28 33 35 36 26 22 27 22 20 26 31 37 40 35 24 15 15 13 9 13 16 11 11 10 6 13 13 9 12 11 8 11 10 6 7 9 10 8 6 6 5 2 3 4 5 3 3 5 8 4 9 10 8 10 11 12 13 16 20 22 22 25 28 30 32
24 24 26 27 26 25 25 24 26 28 27 32 34 31 31 28 28 27 13 1 5 6 8 16 19 24 36 32 24 24 15 16 28 33 36 40 39 29 16 12 10 10 13 11 5 5 7 7 9 11 12 14 11 8 10 11 7 7 7 9 9 7 7 7 4 2 2 5 5 1 4 8 4 5 8 6 6 8 8 7 13 20 22 24 28 30 31 34
24 25 25 26 26 26 25 23 24 26 27 32 33 30 29 28 28 24 11 4 6 9 10 15 15 17 29 35 33 21 4 12 26 28 35 39 35 27 15 11 8 8 9 6 5 5 4 7 7 8 12 10 9 9 8 11 8 5 6 11 10 8 8 8 6 5 4 3 5 3 3 6 8 5 6 6 5 7 7 7 10 17 23 26 28 29 30 32
24 25 25 27 27 27 27 25 23 25 31 32 30 30 28 28 28 18 7 5 5 10 10 16 20 19 21 30 40 26 6 16 20 21 37 40 35 24 11 13 14 9 13 10 8 5 7 10 12 11 11 8 10 12 10 13 8 4 7 11 11 10 10 8 6 5 2 1 7 6 3 5 9 4 4 6 7 7 8 9 10 14 21 24 25 27 29 30
25 24 25 27 27 28 28 28 27 26 30 29 26 27 27 28 25 10 4 5 3 4 6 18 22 16 18 23 33 32 20 16 11 19 36 36 35 25 9 16 18 9 14 15 12 7 5 14 19 14 10 10 11 11 11 14 8 4 7 6 4 6 7 6 5 5 2 3 11 8 6 5 8 3 4 3 5 8 8 9 9 15 23 25 27 30 31 31
26 25 26 25 26 28 26 28 32 28 25 26 26 25 27 27 16 5 8 5 1 3 7 15 19 20 23 17 17 26 23 13 8 18 28 26 33 27 9 14 16 6 9 12 14 10 2 11 18 12 10 10 8 7 9 13 9 4 5 5 5 1 2 2 1 2 3 8 12 8 11 9 8 3 6 5 5 8 8 7 8 13 22 27 30 31 31 30
27 27 26 25 27 28 26 30 34 29 25 26 26 27 25 18 8 5 9 1 1 6 7 4 10 21 25 16 11 19 18 12 12 15 15 14 20 18 7 9 9 5 6 8 11 9 0 5 8 8 13 10 5 4 6 10 10 6 5 5 3 0 1 2 0 2 6 9 5 9 13 11 9 5 5 4 6 9 10 8 8 11 19 27 30 29 28 27
28 28 26 26 28 28 30 34 32 29 29 26 26 30 20 8 6 7 4 4 1 5 6 5 8 12 20 20 14 17 17 13 13 13 10 9 9 10 9 9 9 7 7 8 8 7 3 4 3 3 11 14 7 4 4 6 8 6 5 6 5 4 2 3 3 3 6 6 1 10 12 8 10 12 7 5 6 6 9 10 11 13 18 24 25 24 23 22
28 28 27 28 30 30 33 33 28 28 30 28 29 27 13 6 8 9 5 3 2 5 4 8 12 12 16 17 13 15 16 13 13 13 13 11 7 10 12 11 13 10 7 9 8 6 4 5 7 4 6 15 13 8 6 5 7 8 7 7 7 6 4 6 5 3 4 4 2 6 6 3 7 11 11 12 13 15 14 14 17 18 20 24 24 23 24 25
28 28 30 30 30 33 33 31 29 28 29 32 28 17 9 8 7 10 10 7 2 1 2 3 11 15 15 14 13 15 13 11 15 15 14 12 6 6 10 11 15 11 6 9 9 9 9 7 10 10 7 13 16 12 9 7 7 10 8 7 8 6 5 6 5 4 4 3 3 3 2 5 6 3 5 10 15 23 28 28 29 28 27 27 26 25 28 31
29 29 31 31 32 35 33 32 32 29 30 33 20 9 11 10 6 7 9 6 1 0 2 4 11 12 11 12 11 14 13 9 15 16 12 13 8 6 10 10 14 12 7 8 6 7 12 7 8 16 14 13 15 13 11 9 6 7 6 7 9 7 5 3 4 5 3 1 2 4 3 6 5 4 5 3 3 12 20 23 26 27 24 21 21 23 24 24
31 31 33 34 36 38 34 35 34 30 32 28 10 7 12 7 4 5 5 8 6 3 2 4 9 9 8 9 9 13 12 6 13 14 10 13 13 12 13 10 13 15 10 10 6 5 10 7 5 14 13 11 16 15 13 13 8 4 6 9 6 3 6 2 4 2 4 1 4 5 5 5 5 8 7 5 3 3 5 8 12 13 9 6 6 4 3 5
33 34 36 38 41 38 35 36 35 33 34 22 6 8 8 3 4 4 4 9 8 8 6 5 6 8 9 8 8 13 10 5 12 12 7 11 13 14 15 12 15 18 14 13 7 3 7 5 2 12 15 16 19 17 12 14 12 5 8 10 3 3 3 3 4 1 3 3 4 7 9 6 5 6 3 5 9 5 1 1 4 5 9 12 11 13 15 15
35 35 39 44 42 38 36 36 35 36 30 14 9 13 7 3 5 2 3 7 8 7 5 5 6 7 11 10 9 14 12 8 11 10 8 9 7 14 19 12 13 19 19 17 8 2 6 3 4 9 17 12 11 12 8 12 10 3 6 9 6 2 5 5 5 5 5 6 4 5 9 7 7 7 2 4 9 6 3 5 6 7 11 14 13 13 13 13
36 31 36 45 43 39 38 34 37 37 21 6 10 12 5 4 6 7 8 5 6 7 4 5 6 4 9 11 9 12 14 12 13 10 9 8 5 14 22 14 11 18 21 18 8 2 5 5 4 6 10 7 7 7 8 10 6 2 4 6 2 3 6 6 6 6 6 7 6 5 6 5 6 7 6 7 8 6 7 6 6 8 10 12 11 10 11 11
39 25 25 41 42 39 39 36 34 27 12 8 11 6 3 4 5 13 21 13 3 6 6 7 7 4 6 8 7 9 11 12 13 10 9 10 7 10 17 16 12 16 22 19 9 2 2 5 5 3 3 5 6 8 11 13 9 5 6 6 2 2 2 1 3 5 5 5 5 6 6 4 3 5 8 11 10 8 9 8 7 9 11 9 7 8 8 8
40 18 18 37 41 39 40 31 21 13 6 8 9 4 5 5 3 12 25 24 10 3 4 6 7 5 5 6 6 6 8 9 11 10 7 10 10 7 13 19 16 16 18 14 10 6 2 5 7 3 3 6 7 11 15 15 12 9 9 9 8 6 3 2 5 5 4 5 5 5 5 5 4 4 7 9 8 8 9 10 9 12 12 7 5 6 6 7
32 11 15 33 37 41 40 19 9 9 7 10 12 10 8 6 5 9 16 20 14 6 1 1 4 6 5 5 5 4 6 8 10 11 7 10 13 8 15 26 25 22 19 12 13 13 4 3 6 4 4 7 7 7 8 8 9 9 9 10 10 9 8 7 9 6 4 4 4 2 4 6 5 5 6 7 7 9 14 15 12 13 12 5 6 7 7 9
25 10 16 30 37 45 36 9 6 9 7 13 16 15 12 7 6 9 10 12 9 5 3 2 3 6 5 5 6 5 5 7 10 13 10 9 13 12 17 29 27 20 15 10 11 12 4 2 6 4 1 2 5 4 4 0 6 7 7 9 10 11 12 9 6 5 3 4 5 4 6 7 6 5 5 6 8 11 14 15 13 13 8 6 7 10 11 11
23 15 22 33 42 45 29 6 8 11 10 14 13 12 14 10 7 9 9 9 8 6 6 5 4 5 4 4 7 8 7 5 6 10 10 7 10 13 18 29 27 16 13 13 13 13 8 4 7 6 1 1 3 3 3 3 5 6 8 10 11 11 9 3 1 3 3 6 10 8 7 8 5 3 4 5 6 8 11 14 12 9 6 6 10 12 11 9
15 11 18 35 51 48 29 16 14 10 11 15 12 13 14 9 10 14 11 10 12 9 6 8 9 6 3 4 5 6 7 7 5 6 7 5 5 8 16 29 28 15 16 23 21 16 11 6 8 10 8 7 8 8 8 8 6 3 3 8 12 12 11 7 4 6 5 6 9 8 7 8 6 5 5 5 4 6 11 13 9 5 4 6 11 12 9 8
8 5 7 21 42 43 31 28 22 9 9 13 10 12 15 9 9 17 16 11 13 13 8 8 9 7 3 5 6 5 5 7 6 3 3 5 3 2 13 29 30 23 24 27 23 14 5 6 11 13 13 13 12 12 12 10 9 7 8 13 16 15 16 13 8 8 8 7 9 9 9 9 11 11 9 5 7 10 11 9 9 9 8 8 9 8 7 6
6 6 6 7 18 22 18 20 18 11 13 16 9 9 17 16 9 12 15 13 14 16 11 6 8 9 8 8 7 6 7 7 7 5 4 5 2 3 6 16 24 31 30 23 20 13 3 8 16 16 15 16 13 11 11 13 15 17 18 20 20 18 19 16 12 13 12 10 10 11 11 12 15 17 14 10 11 11 9 7 9 9 8 7 8 8 7 6
7 6 13 13 8 8 13 18 19 19 20 20 13 10 16 20 14 11 12 12 13 15 10 8 10 13 14 13 8 6 6 6 6 7 5 5 3 2 3 4 14 30 27 14 14 11 4 9 17 16 15 16 13 8 9 13 16 17 20 21 21 21 21 20 19 19 16 12 12 15 16 17 17 18 18 16 12 10 9 10 9 8 7 7 8 9 7 6
9 4 12 18 7 3 16 25 24 21 18 15 11 11 16 20 20 15 9 8 10 13 12 11 13 15 17 16 11 8 8 7 7 8 6 7 8 5 2 2 8 19 18 10 9 7 4 8 14 15 15 17 14 7 8 13 14 15 19 21 21 21 21 21 20 21 20 17 15 17 20 17 13 17 20 15 10 11 12 12 12 14 14 10 7 6 6 6
12 8 8 12 6 4 11 16 16 14 14 13 10 11 13 17 20 17 11 11 12 12 14 16 17 16 17 16 15 14 14 12 11 11 9 9 8 7 6 4 4 6 7 7 6 5 6 10 11 12 12 15 15 10 9 12 14 16 18 18 17 15 14 16 17 17 18 17 16 17 17 13 12 17 17 7 8 12 12 13 18 21 19 14 11 10 9 9
20 16 10 6 5 5 7 8 11 12 11 11 13 14 14 18 23 19 13 18 21 16 17 21 20 14 14 17 17 19 20 17 16 15 13 12 12 10 8 6 6 5 4 6 5 4 7 10 8 7 7 11 15 15 13 10 8 11 14 14 14 13 12 14 16 17 17 17 17 16 13 13 13 12 11 7 10 11 11 14 20 20 19 18 16 14 13 12
22 18 14 9 5 6 8 7 11 13 12 13 18 20 19 22 25 19 12 17 24 25 24 26 23 15 11 14 20 28 32 28 24 20 16 17 18 15 14 14 13 11 8 6 5 3 5 8 6 5 6 10 15 17 16 10 4 7 9 12 16 17 17 16 15 17 18 16 15 14 13 17 13 6 7 9 9 9 13 18 22 22 22 22 20 18 17 15
Wind_Direction
261 259 257 255 255 256 258 260 259 258 257 257 256 255 252 249 245 243 244 248 257 262 265 265 265 270 273 276 276 273 271 270 265 258 254 253 250 250 256 249 232 228 227 226 228 231 232 235 235 229 229 222 216 229 216 216 212 194 129 131 199 193 198 197 172 187 180 280 310 320 281 153 127 91 112 105 103 124 149 162 173 190 176 169 173 168 164 157
260 259 257 255 254 254 255 257 257 257 255 254 255 255 255 252 247 246 245 243 247 253 258 263 267 272 278 283 282 284 284 280 271 258 251 250 249 249 255 252 238 231 226 223 226 230 232 232 225 217 220 208 194 206 207 210 202 188 126 152 216 196 213 225 173 111 49 347 332 354 303 142 118 198 114 97 48 95 128 157 174 188 176 170 175 176 179 173
260 259 258 257 255 253 253 253 254 256 254 253 253 254 255 256 251 248 246 244 244 245 247 255 265 271 276 283 286 292 294 292 281 267 258 252 251 248 247 246 240 232 217 204 208 215 216 211 206 205 206 200 195 204 207 200 200 201 166 169 238 211 239 268 229 99 10 334 341 16 357 40 68 217 209 159 83 80 153 180 189 201 210 194 180 184 190 191
259 259 258 257 256 254 253 251 251 252 252 252 252 253 254 255 255 249 245 244 245 245 243 246 255 265 272 276 284 292 302 306 287 273 262 243 240 239 238 236 233 228 213 197 191 194 196 193 195 195 193 201 201 204 207 193 192 199 181 186 229 202 234 261 249 237 345 342 24 2 344 15 11 315 212 184 122 14 181 135 172 234 234 220 202 199 202 204
260 258 257 257 256 255 253 251 250 249 248 249 251 252 252 252 254 252 246 243 244 245 244 243 246 256 266 267 276 281 298 321 286 249 221 206 214 230 233 230 225 221 212 198 189 188 189 190 192 190 189 203 196 191 212 205 195 190 218 217 214 191 204 253 259 270 251 321 345 331 310 306 309 291 262 194 175 214 193 132 5 294 260 231 216 211 209 212
260 258 257 257 256 256 254 252 250 248 246 246 248 250 250 249 250 251 248 243 242 243 242 243 241 245 256 259 264 259 229 236 224 156 166 171 164 240 238 223 217 213 210 200 193 192 192 193 194 191 187 199 200 189 205 207 201 210 249 238 225 218 228 255 265 273 270 291 305 298 283 283 285 277 273 242 216 203 201 213 203 287 296 240 211 215 218 223
260 259 258 257 257 255 254 253 251 248 246 244 244 247 248 246 247 249 249 245 242 241 240 242 241 237 243 251 250 241 231 234 238 195 181 166 148 95 85 203 208 206 206 203 199 198 198 200 198 189 173 184 209 206 212 214 207 197 248 260 246 236 239 254 265 277 280 278 276 283 283 272 263 259 253 243 241 226 224 246 243 271 281 232 219 224 231 236
259 258 258 257 256 255 254 254 252 249 247 244 242 243 244 244 245 246 248 248 245 240 238 239 240 234 228 239 240 235 238 235 226 224 199 170 186 145 82 121 196 204 205 206 205 201 201 202 199 190 175 200 203 206 223 247 252 204 226 255 256 250 251 262 269 276 280 279 280 280 264 260 261 259 244 241 249 245 240 247 254 266 258 234 237 240 240 239
257 256 256 255 255 254 253 253 252 250 248 245 242 241 242 243 243 244 245 247 247 241 237 236 237 232 223 229 229 236 245 232 206 224 215 197 250 300 52 76 180 205 208 210 207 199 198 199 198 189 182 211 208 241 225 228 256 207 226 249 254 261 263 269 271 273 279 283 286 275 251 267 272 271 256 244 249 253 251 251 257 264 260 251 253 252 252 247
257 255 254 254 253 252 252 252 251 250 248 246 244 241 241 242 242 244 245 244 246 243 235 234 237 231 223 222 214 230 252 237 209 224 232 234 253 273 284 20 202 216 213 214 205 193 192 195 196 190 195 224 208 229 222 190 240 265 276 274 266 265 264 265 270 272 278 284 284 276 262 275 274 260 251 246 247 253 254 255 257 261 262 261 260 257 255 254
256 256 253 252 251 251 250 250 250 250 248 246 244 242 241 241 241 242 244 243 243 244 236 232 236 233 227 220 211 218 242 242 216 222 231 240 245 249 252 248 236 237 223 216 203 190 182 178 186 187 205 222 195 215 235 217 240 269 282 292 283 278 272 261 261 262 266 278 278 282 287 282 274 234 241 248 251 256 257 261 261 262 264 263 260 258 254 254
256 256 254 252 251 250 249 249 249 248 247 245 243 241 239 239 240 239 241 243 241 243 240 232 234 234 228 223 225 230 233 228 221 223 229 236 240 242 240 235 244 244 229 216 198 185 175 174 185 194 210 201 172 174 238 229 236 264 262 284 294 307 295 255 244 245 236 238 264 294 307 276 249 236 250 251 250 253 256 261 265 266 266 261 258 259 256 257
257 256 255 252 250 249 248 247 246 247 246 245 244 241 239 237 238 237 237 241 240 240 241 238 239 237 228 225 235 241 237 226 229 234 234 233 234 234 226 221 232 235 223 205 187 180 184 195 203 218 228 201 181 157 203 222 221 255 232 209 292 319 297 240 215 219 213 213 229 238 278 250 238 250 255 255 250 246 246 253 259 261 264 260 255 256 259 261
256 255 254 251 250 249 248 246 245 245 244 243 243 240 238 235 235 237 235 237 239 238 238 240 243 242 238 240 245 245 240 232 232 233 235 232 222 221 213 205 206 212 202 187 181 186 199 213 221 231 234 226 237 251 338 5 52 205 193 194 225 257 276 249 200 187 194 226 222 212 246 246 252 257 257 260 255 244 240 246 251 251 255 259 256 255 258 261
254 255 254 250 249 249 248 246 243 243 243 241 240 239 237 233 231 234 234 235 235 236 238 238 237 236 244 253 252 246 239 232 228 224 225 224 204 199 203 198 200 202 195 187 188 198 209 218 221 225 228 228 233 10 3 357 3 68 171 242 261 209 265 298 252 201 201 230 216 208 252 265 263 256 256 260 256 245 238 241 245 244 247 255 259 261 263 264
253 253 253 250 248 247 245 243 242 240 242 241 238 237 236 233 229 229 232 233 232 233 233 235 234 229 243 257 247 239 232 226 223 215 213 211 189 179 188 191 192 193 198 198 199 207 215 220 218 217 216 206 185 107 50 357 322 354 167 216 244 208 232 288 280 232 215 222 217 215 238 274 275 256 254 255 251 246 239 241 245 246 249 255 264 270 272 272
253 251 250 248 246 246 244 243 242 239 239 239 237 236 235 234 229 225 227 229 229 227 225 231 233 229 242 254 231 222 226 225 219 207 203 202 183 166 174 184 182 184 196 201 206 210 215 213 203 216 218 178 153 122 102 206 240 318 217 211 228 206 194 221 288 257 213 206 228 233 239 255 265 266 264 259 254 247 237 242 247 249 253 257 265 272 275 277
252 250 247 246 245 245 243 242 241 237 236 237 236 234 233 233 228 224 222 223 223 224 229 227 216 218 239 235 216 214 226 226 216 203 195 191 176 163 173 185 181 181 185 192 203 204 202 199 181 190 222 196 167 159 189 200 188 199 196 200 229 214 202 211 244 258 187 186 226 240 250 253 259 267 268 264 263 256 239 240 245 248 252 253 258 270 278 279
250 249 246 244 244 243 241 240 239 237 232 232 232 230 231 231 229 227 224 220 214 211 225 212 198 194 282 218 213 222 232 224 211 199 190 184 172 166 177 187 187 183 179 178 194 193 182 168 172 201 217 206 196 192 201 188 180 196 192 184 197 203 225 231 230 247 255 249 241 240 242 247 252 259 263 260 257 254 248 244 243 243 245 246 259 276 280 278
249 249 246 242 242 241 239 238 239 236 228 227 226 224 226 222 222 228 222 222 217 210 215 203 201 211 253 136 201 216 226 223 210 199 192 186 174 172 181 185 184 182 183 173 176 188 181 180 203 206 208 205 202 201 203 181 178 189 186 198 196 196 238 244 239 253 240 240 254 245 245 248 248 251 257 257 252 248 248 246 245 244 246 254 265 272 275 277
249 248 246 243 240 239 239 238 240 236 228 225 221 219 218 208 203 213 211 222 227 219 222 221 209 218 226 212 185 205 210 208 209 205 197 189 181 177 183 183 179 182 189 165 159 188 187 204 217 209 208 197 189 193 202 214 195 178 183 209 216 210 240 242 241 262 226 204 253 249 255 257 248 248 256 257 249 239 243 242 245 248 251 258 261 260 266 274
248 247 244 242 239 238 239 238 239 235 229 225 221 220 222 213 212 217 204 219 233 226 225 226 227 227 223 224 215 199 199 192 201 208 201 192 188 185 182 181 182 179 172 158 163 191 206 225 219 202 190 144 156 181 196 215 215 213 188 183 224 214 254 278 258 267 229 203 261 261 262 262 254 249 252 255 242 232 240 240 241 244 246 250 253 256 261 264
248 247 243 240 238 237 237 237 236 234 230 226 222 221 223 219 214 219 212 210 239 229 225 225 230 234 222 218 210 194 193 188 195 204 199 192 190 189 181 174 186 179 164 183 194 194 213 229 205 185 166 142 171 190 188 208 217 224 203 177 224 191 167 266 263 262 248 224 246 275 275 266 256 254 254 254 248 241 242 243 243 242 244 249 253 258 260 260
247 245 244 239 237 236 235 236 234 232 231 228 226 224 223 220 213 217 218 227 274 231 225 227 226 229 223 215 207 197 197 196 195 202 197 190 186 187 187 176 178 184 185 199 203 208 229 218 173 173 165 170 191 193 186 202 217 222 220 207 212 182 186 225 274 297 305 269 254 352 301 276 234 232 244 249 249 248 244 245 248 245 245 251 254 255 257 260
246 243 242 238 236 234 233 236 232 229 229 228 228 225 224 223 215 215 217 244 278 219 221 225 222 228 223 218 212 200 202 205 202 203 197 192 184 178 186 183 178 194 201 200 202 219 242 216 171 168 167 186 196 197 193 195 207 224 224 214 202 184 204 233 289 353 346 292 294 47 295 282 219 215 234 233 239 249 245 240 244 247 247 248 249 252 256 260
247 242 241 237 234 231 231 237 235 229 230 231 228 224 222 221 218 218 210 261 252 182 180 198 203 222 218 214 206 193 204 213 205 203 196 195 191 178 176 181 184 205 196 190 202 228 235 200 170 165 176 191 198 209 200 186 199 228 205 193 200 188 199 224 210 173 229 256 283 132 222 271 278 225 238 231 229 249 256 249 245 246 247 246 249 254 258 261
248 244 240 238 232 227 227 235 236 229 226 229 227 223 220 216 217 215 200 260 241 164 162 181 182 199 205 205 195 183 193 183 192 205 195 194 194 184 182 181 183 201 171 152 213 209 151 162 162 169 183 190 202 213 197 175 196 234 172 168 191 194 198 214 197 201 228 262 290 266 185 265 279 246 219 201 216 255 263 263 254 247 248 250 253 257 258 260
246 243 240 236 232 229 226 228 233 228 225 228 226 223 220 216 215 207 193 253 196 143 151 178 191 196 189 193 190 186 179 159 175 206 196 193 194 190 200 194 184 183 163 163 213 194 126 164 175 174 186 195 207 208 183 175 196 225 170 168 187 195 201 208 200 225 259 342 266 250 159 259 274 238 184 189 206 231 242 245 250 248 249 251 252 253 256 258
243 240 239 235 232 232 227 224 229 232 230 229 226 222 218 213 211 204 222 237 145 122 145 167 185 185 161 172 186 192 195 176 177 196 191 193 195 192 215 207 194 177 171 183 210 204 166 192 186 174 189 206 209 205 179 183 206 205 165 138 143 185 197 203 209 220 187 221 243 223 154 237 272 219 171 207 212 210 226 233 237 241 243 247 250 254 259 261
243 240 238 234 232 232 229 225 226 229 230 226 225 221 210 202 199 206 230 226 161 193 154 159 170 157 152 162 184 193 195 190 176 177 182 189 194 196 206 201 192 159 176 202 215 214 191 188 184 181 205 204 191 191 180 185 190 148 131 96 65 115 145 127 193 173 177 236 240 189 163 209 266 234 170 203 208 183 203 226 230 239 242 245 251 255 259 261
244 240 235 232 232 230 227 226 224 221 222 222 219 210 199 193 191 222 222 217 336 193 142 156 177 154 161 170 177 189 194 191 170 164 173 182 192 198 183 178 178 150 183 215 224 226 342 161 180 201 209 188 135 160 187 187 178 141 123 128 106 282 120 102 124 159 205 241 229 158 173 203 240 243 173 206 225 186 192 213 219 232 238 242 249 254 257 261
245 241 235 231 232 230 225 227 226 218 218 220 206 190 185 200 216 221 200 90 338 220 149 168 193 167 172 175 174 182 188 190 174 164 176 175 183 198 192 184 171 161 190 201 213 223 220 217 249 268 205 185 151 152 192 197 186 168 144 149 166 200 201 187 200 195 217 255 212 161 179 201 235 250 244 238 254 220 202 208 213 223 235 241 247 253 259 266
243 240 238 231 229 230 227 228 226 217 216 214 197 182 183 239 212 201 205 168 222 244 187 171 178 176 173 174 179 181 183 187 174 170 183 183 184 196 206 204 179 176 191 187 197 207 201 227 234 266 218 190 179 172 187 197 189 187 176 172 183 186 196 208 208 218 225 247 231 175 172 203 246 262 247 223 231 236 230 230 232 232 239 248 252 258 269 275
239 239 239 233 229 230 230 228 222 218 215 206 195 186 205 234 202 184 201 214 242 242 241 164 167 174 175 181 185 177 181 189 177 176 182 184 191 189 202 210 193 189 179 178 196 198 198 213 205 210 204 180 187 193 182 163 175 195 188 186 199 191 193 205 194 213 240 233 210 202 200 201 205 245 229 211 223 232 233 236 242 244 247 255 263 270 276 277
235 236 237 235 232 230 229 226 221 219 212 202 196 202 210 212 205 191 194 201 204 205 250 186 170 173 180 191 192 181 189 194 178 182 187 187 194 186 190 203 197 193 177 181 201 198 209 236 205 202 197 169 183 197 170 146 176 205 176 187 217 200 160 186 201 193 204 217 195 212 241 223 225 292 277 235 219 233 233 234 241 250 255 261 269 273 276 279
232 231 231 231 230 227 224 222 221 218 209 199 200 226 211 208 197 181 193 196 177 152 201 200 182 179 180 187 197 195 198 186 172 184 197 194 197 194 191 195 195 195 190 186 193 184 206 233 189 191 204 190 186 186 172 167 175 184 182 196 218 167 123 166 242 174 107 194 219 209 244 266 279 288 271 232 206 246 261 241 236 243 243 243 256 272 331 6
228 226 227 227 227 227 223 220 218 214 207 201 217 224 203 221 213 167 194 198 168 151 177 209 193 184 188 187 192 192 184 162 178 188 194 192 198 194 192 198 195 197 200 196 202 200 197 228 175 172 198 211 191 175 181 191 177 159 198 190 130 59 114 164 230 206 127 219 235 210 224 237 237 258 268 203 216 237 332 145 164 146 118 107 99 85 75 68
224 225 228 227 226 224 220 219 216 209 204 203 229 222 196 198 219 206 217 194 163 153 171 208 207 189 189 190 193 189 177 173 187 191 190 189 196 189 187 197 199 198 206 204 210 252 194 231 304 193 193 198 169 155 189 213 197 165 185 167 125 183 203 175 202 217 202 224 252 223 222 221 212 229 240 190 207 204 145 130 129 128 116 106 97 81 67 59
219 220 229 228 223 220 218 216 210 204 201 209 228 222 201 197 202 213 239 223 166 176 190 199 202 207 199 192 188 185 183 187 186 187 197 189 193 194 186 185 194 198 206 205 204 247 190 199 288 233 195 165 144 168 198 209 208 82 141 162 162 215 198 184 201 214 209 222 245 233 220 220 209 211 220 219 209 185 167 159 156 157 136 113 93 69 56 56
209 209 232 227 217 214 214 208 201 198 201 221 226 219 182 202 189 203 225 238 194 181 207 204 192 197 210 206 204 190 188 196 190 190 201 184 186 206 190 181 182 191 202 207 207 200 172 202 234 256 189 162 172 199 199 196 191 163 166 181 199 218 187 180 216 216 207 210 227 234 232 239 220 198 209 218 217 206 189 171 172 172 148 119 83 53 51 69
199 204 230 219 213 206 198 194 193 197 216 217 225 234 185 195 183 196 216 227 235 216 199 211 208 189 185 206 222 206 190 198 199 200 206 189 191 210 195 189 180 177 192 209 216 209 175 201 208 185 166 190 202 208 208 203 186 172 185 187 186 195 187 200 223 213 199 207 212 222 241 258 252 215 213 216 216 211 185 163 168 176 159 124 65 51 66 99
189 206 209 203 206 194 182 181 189 193 216 214 216 225 203 192 204 199 207 214 224 242 218 239 225 192 182 202 218 219 199 199 201 203 208 201 201 204 193 193 187 177 182 197 208 206 180 160 201 203 193 206 221 224 223 208 178 177 199 193 189 197 188 202 222 205 188 236 241 227 252 264 252 213 215 220 195 174 168 161 167 175 160 111 64 84 109 125
186 190 174 189 200 186 174 184 212 187 220 215 210 219 210 201 202 197 199 199 203 219 219 255 230 202 210 206 201 221 218 209 206 203 204 204 208 211 191 189 189 179 178 193 199 197 186 145 195 213 288 265 276 317 350 39 167 185 215 204 197 202 197 204 213 175 166 222 220 224 244 254 249 214 209 205 174 166 170 169 172 171 148 88 94 117 124 127
192 175 158 181 193 183 172 189 198 191 212 204 202 212 207 214 216 193 192 192 189 190 199 220 227 216 222 184 187 209 207 212 228 211 206 204 208 208 188 187 191 183 180 193 183 178 189 189 192 200 168 275 259 288 309 241 197 198 212 209 206 199 187 184 180 165 194 207 202 217 237 241 256 264 242 218 173 169 191 195 187 168 124 97 120 129 131 133
188 172 164 176 179 178 185 199 187 189 202 193 199 205 198 211 215 201 195 193 198 199 200 212 209 205 208 159 185 224 208 208 236 216 210 218 208 190 179 188 195 194 198 197 181 173 187 194 196 202 197 195 202 204 205 201 197 200 198 204 210 198 180 181 211 215 220 207 201 212 230 241 273 294 264 232 188 203 220 215 198 170 140 131 136 140 146 153
168 176 187 174 172 177 193 198 188 187 194 189 199 204 201 209 207 202 202 199 202 203 210 220 202 193 207 182 193 228 218 211 223 217 205 213 221 185 181 190 195 199 207 200 180 165 178 212 212 213 210 209 211 209 196 173 173 189 187 196 207 204 193 193 206 215 214 213 214 213 214 235 256 256 242 208 197 224 230 202 174 177 181 165 155 158 164 172
178 181 186 173 172 179 192 192 191 197 191 187 191 195 201 208 206 197 199 203 203 201 211 229 198 194 209 201 201 218 203 197 210 222 219 204 242 327 223 202 199 201 205 200 181 174 182 217 215 220 222 223 227 218 189 171 182 195 197 201 205 203 199 199 207 212 209 214 229 223 209 222 242 245 238 220 210 223 230 202 192 203 198 176 169 166 164 173
197 195 189 193 186 179 188 188 192 198 191 186 190 189 194 203 207 196 194 203 204 197 205 224 210 208 212 204 204 214 191 179 196 205 205 195 192 321 306 266 218 208 205 198 190 191 202 217 214 218 223 229 235 221 185 184 194 198 201 204 206 203 201 201 209 213 209 212 226 227 218 220 234 244 243 234 216 212 225 231 236 245 230 193 175 170 174 191
201 217 200 202 209 218 201 193 187 191 191 184 190 197 194 199 205 203 187 186 203 202 203 216 216 214 215 209 206 213 201 188 202 203 187 185 193 198 213 296 244 221 208 201 205 197 188 219 217 213 221 230 229 206 188 200 203 204 207 207 207 207 204 204 209 214 217 219 223 229 233 230 229 242 250 247 216 203 221 240 251 258 256 245 232 226 227 228
201 207 199 201 220 239 209 194 181 183 190 188 196 208 203 202 206 206 190 177 192 199 198 212 218 210 212 213 210 220 220 204 210 212 185 176 193 200 199 202 226 222 201 198 210 194 198 220 214 203 217 232 225 211 208 213 209 207 209 210 209 206 204 209 214 216 221 226 227 232 243 247 237 241 249 236 159 176 202 224 237 247 252 251 246 237 224 209
211 214 208 199 209 192 183 184 179 182 188 189 199 202 202 208 206 201 196 195 197 195 189 203 215 209 210 213 211 224 226 213 216 216 192 188 202 197 193 193 175 167 184 202 202 189 206 219 206 186 211 229 221 215 217 222 229 223 214 207 203 198 200 208 210 212 213 216 223 229 239 246 241 237 233 186 153 174 196 205 217 230 236 236 234 226 217 208
213 221 218 210 206 177 175 183 180 185 193 197 203 201 199 208 203 190 196 207 207 207 200 199 204 202 204 209 211 221 223 216 220 224 208 209 216 204 197 198 184 176 183 199 209 204 207 217 206 171 199 228 223 215 211 206 226 240 218 203 199 199 203 206 208 217 214 206 214 219 224 234 231 191 191 194 178 196 212 211 215 220 221 226 234 234 227 215